[[{"header":{"parameterUnit":"m.s-1","parameterCategory":1,"la1":30.2991,"la2":30.254,"lo1":-89.0895,"lo2":-89.0444,"dy":0.0017,"dx":0.0017,"nx":28,"ny":28,"refTime":"2025-04-29T21:00:00:Z","depth":0,"parameterNumber":2,"parameterNumberName":"U-component_of_WINDS"},"data":[0,0,0,0,0,0,0,0,0,0,0,0,0,0,0,0,0,0,0,0,0,0,0,0,0,0,0,0,0,0,0,0,0,0,0,0,0,0,0,0,0,0,0,0,0,0,0,0,0,0,0,0,0,0,0,0,0,0,-1.0966,-1.0966,0,-1.0969,-1.0969,-1.0969,-1.0937,-1.0936,-1.0935,-1.0934,-1.0941,-1.0942,-1.0943,0,0,0,0,0,0,0,0,0,0,0,0,0,-1.0935,-1.0936,-1.0966,-1.0966,-1.0966,-1.0969,-1.0969,-1.0969,-1.0937,-1.0936,-1.0935,-1.0934,-1.094,-1.0942,-1.0943,0,0,0,0,0,0,0,0,0,0,0,0,0,-1.0944,-1.0936,-1.0966,-1.095,-1.0949,-1.0969,-1.0969,-1.0969,-1.0938,-1.0936,-1.0935,-1.0934,-1.094,-1.0941,-1.0943,-1.0979,0,0,-1.0948,-1.0948,0,0,0,0,0,0,0,0,-1.0944,-1.0946,-1.0952,-1.0951,-1.095,-1.0951,-1.0961,-1.0973,-1.0938,-1.0942,-1.0934,-1.0933,-1.0946,-1.0946,-1.095,-1.098,-1.098,-1.0948,-1.0949,-1.0949,-1.095,0,0,0,0,0,0,0,-1.0943,-1.0945,-1.0967,-1.0953,-1.0951,-1.0944,-1.0944,-1.0963,-1.0951,-1.0941,-1.0939,-1.094,-1.0945,-1.0949,-1.095,-1.098,-1.0948,-1.0949,-1.095,-1.095,-1.1041,-1.1042,0,0,0,0,0,0,-1.0944,-1.0945,-1.0967,-1.0967,-1.0943,-1.0946,-1.0946,-1.0952,-1.0951,-1.0949,-1.0941,-1.0938,-1.0947,-1.0948,-1.095,-1.0993,-1.0949,-1.0951,-1.0951,-1.1039,-1.1041,-1.1043,0,0,0,0,0,0,-1.0944,-1.0947,-1.0967,-1.0956,-1.0958,-1.0948,-1.0955,-1.0953,-1.0957,-1.0951,-1.0949,-1.0947,-1.0946,-1.0948,-1.0972,-1.0993,-1.0951,-1.0953,-1.1037,-1.104,-1.1042,-1.1079,0,0,0,0,0,0,-1.0943,-1.0947,-1.0959,-1.0956,-1.0958,-1.0988,-1.0957,-1.0954,-1.096,-1.0956,-1.0956,-1.0955,-1.0945,-1.097,-1.0974,-1.0994,-1.0954,-1.1036,-1.1038,-1.1041,-1.1075,-1.1082,-1.1087,0,0,0,0,0,-1.0942,-1.097,-1.096,-1.0963,-1.0974,-1.0989,-1.0991,-1.0978,-1.0961,-1.0975,-1.0971,-1.0955,-1.099,-1.0973,-1.0977,-1.0998,-1.1034,-1.1038,-1.1041,-1.1073,-1.108,-1.1087,0,0,0,0,0,0,-1.0976,-1.0969,-1.0958,-1.0985,-1.0988,-1.0984,-1.1,-1.0987,-1.0995,-1.0991,-1.0977,-1.0977,-1.1004,-1.1003,-1.0984,-1.1034,-1.1009,-1.1014,-1.1032,-1.104,-1.1045,-1.1045,-1.0955,0,0,0,0,0,-1.0987,-1.0999,-1.0992,-1.1017,-1.1019,-1.101,-1.1016,-1.1006,-1.1009,-1.101,-1.1008,-1.1011,-1.1024,-1.1032,-1.1043,-1.1076,-1.1076,-1.1092,-1.1098,-1.1103,-1.1107,-1.1125,-1.1132,-1.1054,-1.1054,-1.1054,0,0,-1.1009,-1.1007,-1.1015,-1.1024,-1.1025,-1.1039,-1.1011,-1.1026,-1.1037,-1.1012,-1.1035,-1.1034,-1.1037,-1.1066,-1.1079,-1.1067,-1.1129,-1.1107,-1.1111,-1.1112,-1.1129,-1.1137,-1.1143,-1.1056,-1.1056,-1.1055,0,0,-1.1056,-1.1056,-1.1076,-1.1078,-1.108,-1.1073,-1.1079,-1.1077,-1.1075,-1.1097,-1.1079,-1.1092,-1.1113,-1.1117,-1.1121,-1.1172,-1.1158,-1.1176,-1.1206,-1.1225,-1.1231,-1.1236,-1.1254,-1.1261,-1.118,-1.118,-1.118,0,-1.1084,-1.1103,-1.1089,-1.1106,-1.1111,-1.1089,-1.1111,-1.1114,-1.1119,-1.1124,-1.111,-1.1137,-1.1138,-1.1167,-1.118,-1.1184,-1.1191,-1.1175,-1.1231,-1.1236,-1.1241,-1.1258,-1.1265,-1.1182,-1.1182,-1.1182,-1.1182,0,-1.1137,-1.1151,-1.1167,-1.1173,-1.118,-1.1199,-1.1189,-1.1198,-1.1189,-1.1185,-1.1209,-1.1209,-1.122,-1.1227,-1.1218,-1.1256,-1.1248,-1.1233,-1.1208,-1.1251,-1.1267,-1.1273,-1.1186,-1.1185,-1.1184,-1.1184,0,0,-1.1204,-1.1202,-1.1209,-1.1211,-1.1212,-1.1223,-1.1243,-1.1252,-1.1261,-1.1266,-1.1282,-1.1302,-1.1288,-1.1293,-1.1285,-1.1301,-1.1341,-1.1284,-1.1283,-1.1294,-1.1384,-1.1395,-1.1403,-1.1333,-1.1334,-1.1335,-1.1384,0,-1.125,-1.1281,-1.127,-1.1302,-1.1316,-1.1296,-1.1313,-1.1317,-1.1314,-1.1326,-1.1323,-1.1336,-1.1317,-1.132,-1.1335,-1.1333,-1.1359,-1.133,-1.1348,-1.1349,-1.1347,-1.1411,-1.1423,-1.1469,-1.139,-1.1391,-1.1392,0,-1.1307,-1.1314,-1.1348,-1.1347,-1.1352,-1.1368,-1.1376,-1.1388,-1.1392,-1.1389,-1.1395,-1.1384,-1.1404,-1.1381,-1.1409,-1.1389,-1.1397,-1.1397,-1.1399,-1.1399,-1.1372,-1.1413,-1.1483,-1.149,-1.1402,-1.1401,-1.14,0,-1.1353,-1.1371,-1.1393,-1.1396,-1.1396,-1.1408,-1.1408,-1.1411,-1.1418,-1.1427,-1.1431,-1.1443,-1.1449,-1.1458,-1.1451,-1.1434,-1.1481,-1.1456,-1.148,-1.148,-1.1489,-1.1489,-1.1561,-1.1495,-1.1495,-1.1495,-1.1495,0,-1.1405,-1.1426,-1.1414,-1.1427,-1.1451,-1.1439,-1.1464,-1.1463,-1.1466,-1.148,-1.1465,-1.1479,-1.1468,-1.1482,-1.1477,-1.1501,-1.1505,-1.1503,-1.1501,-1.1504,-1.1504,-1.1508,-1.1504,-1.1497,-1.1496,-1.1496,-1.1496,0,-1.1459,-1.1452,-1.1475,-1.1473,-1.1474,-1.1491,-1.1491,-1.1504,-1.1501,-1.1519,-1.1523,-1.1518,-1.1533,-1.1527,-1.1544,-1.154,-1.1572,-1.1566,-1.157,-1.1568,-1.1591,-1.1589,-1.1668,-1.1678,-1.1607,-1.1607,-1.1608,0,-1.1492,-1.1508,-1.1508,-1.1516,-1.1518,-1.1531,-1.1539,-1.1528,-1.1537,-1.1543,-1.1557,-1.157,-1.1581,-1.1607,-1.1605,-1.1618,-1.1612,-1.1639,-1.1614,-1.1617,-1.1613,-1.1612,-1.1613,-1.1644,-1.1645,-1.1646,-1.1646,0,-1.1552,-1.1548,-1.1558,-1.1568,-1.1577,-1.1584,-1.159,-1.1598,-1.1588,-1.1598,-1.1613,-1.1622,-1.1639,-1.1653,-1.1665,-1.1667,-1.1656,-1.1654,-1.166,-1.1663,-1.1664,-1.1664,-1.1583,-1.1652,-1.1652,-1.1651,-1.1651,-1.1651,-1.1597,-1.161,-1.1613,-1.1625,-1.1629,-1.1635,-1.1648,-1.1646,-1.1658,-1.167,-1.1664,-1.1682,-1.1687,-1.1702,-1.1706,-1.1721,-1.171,-1.1719,-1.1721,-1.1723,-1.1726,-1.1663,-1.1723,-1.1723,-1.1723,-1.1722,-1.1722,0,-1.1656,-1.1657,-1.1668,-1.1677,-1.1687,-1.1675,-1.1681,-1.1691,-1.1706,-1.1712,-1.1723,-1.1741,-1.1755,-1.1755,-1.1769,-1.1781,-1.1776,-1.1785,-1.1783,-1.1784,-1.1735,-1.1728,-1.1788,-1.1788,-1.1788,-1.1788,-1.1788,-1.1788,-1.1688,-1.171,-1.1706,-1.1731,-1.1732,-1.1748,-1.1753,-1.1759,-1.1764,-1.1784,-1.1796,-1.1795,-1.1799,-1.1813,-1.1826,-1.1826,-1.1832,-1.1843,-1.1841,-1.1794,-1.1788,-1.1781,-1.1775,-1.1844,-1.1844,-1.1889,-1.1889,-1.189]},{"header":{"parameterUnit":"m.s-1","parameterCategory":1,"la1":30.2991,"la2":30.254,"lo1":-89.0895,"lo2":-89.0444,"dy":0.0017,"dx":0.0017,"nx":28,"ny":28,"refTime":"2025-04-29T21:00:00:Z","depth":0,"parameterNumber":3,"parameterNumberName":"V-component_of_WINDS"},"data":[0,0,0,0,0,0,0,0,0,0,0,0,0,0,0,0,0,0,0,0,0,0,0,0,0,0,0,0,0,0,0,0,0,0,0,0,0,0,0,0,0,0,0,0,0,0,0,0,0,0,0,0,0,0,0,0,0,0,5.7932,5.7931,0,5.7864,5.7863,5.7862,5.7806,5.7805,5.7805,5.7804,5.773,5.7729,5.7728,0,0,0,0,0,0,0,0,0,0,0,0,0,5.8011,5.801,5.7932,5.7931,5.793,5.7864,5.7863,5.7862,5.7806,5.7805,5.7805,5.7804,5.7731,5.7729,5.7727,0,0,0,0,0,0,0,0,0,0,0,0,0,5.7963,5.8009,5.7932,5.7894,5.789,5.7864,5.7863,5.7862,5.7806,5.7805,5.7804,5.7804,5.7731,5.7729,5.7727,5.7731,0,0,5.7721,5.772,0,0,0,0,0,0,0,0,5.7966,5.796,5.7901,5.7897,5.7892,5.7842,5.7863,5.7818,5.7806,5.7838,5.7804,5.7803,5.7768,5.7763,5.7752,5.7728,5.7725,5.7721,5.7719,5.7718,5.7718,0,0,0,0,0,0,0,5.7969,5.7963,5.7905,5.79,5.7895,5.788,5.7872,5.7855,5.7809,5.7835,5.7831,5.7824,5.7766,5.7754,5.775,5.7724,5.7721,5.7719,5.7717,5.7717,5.7701,5.7701,0,0,0,0,0,0,5.7979,5.7966,5.7907,5.7903,5.7928,5.7879,5.7871,5.7859,5.7809,5.78,5.7825,5.7821,5.7758,5.7752,5.7747,5.7749,5.7718,5.7716,5.7715,5.77,5.7701,5.7702,0,0,0,0,0,0,5.7981,5.7974,5.791,5.7933,5.7924,5.7879,5.7867,5.7858,5.7847,5.7801,5.7792,5.7822,5.7757,5.775,5.7736,5.7746,5.7715,5.7713,5.7699,5.77,5.7701,5.7753,0,0,0,0,0,0,5.7983,5.7975,5.7977,5.7934,5.7923,5.7901,5.7867,5.7858,5.7844,5.7839,5.7796,5.7787,5.7756,5.774,5.7734,5.7742,5.7712,5.7698,5.7699,5.7701,5.7751,5.7756,5.7761,0,0,0,0,0,5.7986,5.7993,5.7977,5.797,5.7924,5.7902,5.7895,5.786,5.7845,5.7846,5.7816,5.7789,5.7746,5.7739,5.7732,5.774,5.7697,5.7699,5.7701,5.7748,5.7755,5.7761,0,0,0,0,0,0,5.8037,5.7987,5.7968,5.7962,5.7937,5.7892,5.7893,5.7869,5.7846,5.7842,5.7798,5.7789,5.778,5.7758,5.7751,5.7741,5.7718,5.7718,5.7756,5.7762,5.7768,5.7773,5.771,0,0,0,0,0,5.8048,5.8035,5.7991,5.7989,5.7978,5.7938,5.7927,5.7902,5.7873,5.7862,5.7831,5.7804,5.7784,5.7772,5.7751,5.7747,5.7737,5.7749,5.7755,5.7759,5.776,5.7757,5.7762,5.7708,5.7708,5.7708,0,0,5.8069,5.804,5.8034,5.7999,5.7977,5.7964,5.7929,5.7916,5.7906,5.7859,5.7845,5.7822,5.7788,5.778,5.7775,5.7761,5.7773,5.7762,5.7766,5.7764,5.776,5.7765,5.7769,5.7709,5.7709,5.7709,0,0,5.8102,5.8079,5.8075,5.8054,5.8021,5.7994,5.7994,5.7953,5.7937,5.7922,5.7887,5.7874,5.784,5.7818,5.7803,5.7828,5.7802,5.7823,5.785,5.7848,5.7852,5.7856,5.7865,5.7869,5.7824,5.7824,5.7824,0,5.8132,5.8112,5.8076,5.8066,5.8052,5.8011,5.8007,5.7987,5.7949,5.794,5.7926,5.7884,5.7858,5.7845,5.7851,5.784,5.7837,5.7827,5.7855,5.7858,5.7861,5.7869,5.7873,5.7827,5.7826,5.7826,5.7826,0,5.8152,5.8138,5.8139,5.8105,5.8091,5.8084,5.8046,5.8035,5.8012,5.7987,5.7973,5.7941,5.7913,5.7908,5.7884,5.7891,5.7884,5.7863,5.7838,5.7869,5.7877,5.788,5.7831,5.783,5.7829,5.7828,0,0,5.8214,5.8161,5.8162,5.8146,5.8108,5.8096,5.8087,5.8062,5.8054,5.8029,5.802,5.7994,5.7975,5.7957,5.793,5.7928,5.7952,5.7907,5.7906,5.7917,5.7958,5.7974,5.7979,5.7934,5.7935,5.7935,5.7961,0,5.824,5.8224,5.8191,5.8184,5.8172,5.8133,5.8126,5.8101,5.8077,5.8062,5.8035,5.8018,5.7993,5.7982,5.7979,5.795,5.7959,5.7947,5.7925,5.7925,5.7935,5.7982,5.7999,5.8025,5.7963,5.7964,5.7964,0,5.8269,5.8248,5.8241,5.8204,5.8198,5.8191,5.8166,5.8152,5.8123,5.8106,5.8088,5.8059,5.8047,5.8025,5.8007,5.8,5.7989,5.7974,5.7974,5.797,5.7947,5.7981,5.8032,5.8036,5.7968,5.7968,5.7967,0,5.8316,5.8286,5.8278,5.8265,5.8222,5.8219,5.82,5.8171,5.8158,5.8135,5.8126,5.8102,5.8089,5.8071,5.8037,5.8023,5.8023,5.7998,5.8008,5.801,5.801,5.8011,5.8061,5.8003,5.8003,5.8003,5.8003,0,5.8349,5.8346,5.8298,5.8293,5.8289,5.8252,5.8248,5.8226,5.82,5.8189,5.8154,5.8145,5.81,5.8085,5.8058,5.8048,5.8042,5.8028,5.8021,5.8031,5.8033,5.8023,5.8021,5.8004,5.8003,5.8003,5.8003,0,5.8401,5.8369,5.8357,5.8318,5.8308,5.8307,5.8272,5.8266,5.824,5.8228,5.8222,5.8182,5.8163,5.8128,5.8098,5.808,5.8076,5.8063,5.8086,5.8082,5.8095,5.8095,5.8141,5.8146,5.8085,5.8085,5.8086,0,5.8424,5.8421,5.8382,5.8374,5.8357,5.8343,5.8331,5.8294,5.8282,5.8249,5.8247,5.8225,5.8206,5.8178,5.8145,5.8122,5.8109,5.8127,5.8105,5.8117,5.811,5.8111,5.8111,5.8132,5.8133,5.8134,5.8134,0,5.847,5.8455,5.8438,5.8417,5.8403,5.8384,5.8363,5.8358,5.8316,5.8304,5.8285,5.8271,5.8242,5.8221,5.8194,5.8173,5.8147,5.8142,5.8143,5.8154,5.8168,5.8161,5.81,5.8141,5.814,5.8139,5.8139,5.8139,5.8508,5.8504,5.8477,5.846,5.8441,5.8422,5.8415,5.8389,5.8373,5.8348,5.8327,5.831,5.8281,5.8242,5.8224,5.821,5.8197,5.8199,5.8199,5.82,5.8205,5.817,5.8204,5.8204,5.8204,5.8204,5.8204,0,5.8553,5.8533,5.8518,5.8491,5.8478,5.8456,5.8432,5.8422,5.8408,5.8384,5.8367,5.8345,5.8325,5.8292,5.8269,5.8264,5.8252,5.826,5.826,5.8256,5.8217,5.8219,5.827,5.827,5.827,5.827,5.827,5.827,5.8574,5.8567,5.8548,5.8531,5.8511,5.8496,5.8484,5.8467,5.8447,5.8426,5.841,5.8389,5.8361,5.8336,5.8317,5.8307,5.8301,5.8313,5.83,5.8264,5.8258,5.8252,5.8253,5.8311,5.8311,5.8339,5.8339,5.834]}]]